PSLV R/B, 40548

Orbit data source: Space-Track

PSLV R/B, 40548 is space debris in HEO originally from a launch on Sat, 28 Mar 2015 UTC launched from the Sirharikota (SRI). Debris objects in space refer to the collection of defunct objects orbiting the Earth. Examples of debris include non-operational satellites, rocket bodies, and fragments generated from explosions, collisions, or faulty payload assembly.

Loading next visibility...
Identifier
40548, 2015-018B
Orbit
HEO
Last TLE update
16 hours ago
Origin
Manufacturer
VSSC/LPSC
Mission
Spacecraft
Bus & Motor
PS-4, Unknown motor
Mass
920 kg wet, 920 kg dry
Launch date (UTC)
2015-03-28 (10 years ago)
Launch vehicle
Unknown
Launch site
Sirharikota (SRI)
Object type
Payload
Rocket body
Debris
Shape & HBR
Cyl + Cyl + 2 Nozzle, 3.238 m
Radar Cross Section
5.812 m², Large (>1 m²)

Expand to show TLE details & history

TLE from 16 hours ago
0 PSLV R/B
1 40548U 15018B   25191.58369040  .00004933  00000-0  95636-3 0  9990
2 40548  19.0342 111.4469 5789234  56.0303 346.1351  4.36066793153504
Epoch: 2025-07-10T14:00Z
TLE epoch observation values (Epoch: 2025-07-10T14:00:30.85Z)
Latitude
-0.00001°
Longitude
-27.44796°
Altitude
1,570.453 km
Speed
8.666 km/s
True Right ascension
07h 25m 42s
True Declination
0° 00' 00"
Sunlit
Object was in daylight at epoch
Visualization orbit readout
Latitude
-12.62616°
Longitude
-68.35595°
Altitude
5,192.213 km
Speed
6.612 km/s
Apparent Right ascension
05h 14m 37s
Apparent Declination
-22° 37' 55"
Sunlit
Object is in daylight
Visualization observer readout
Local Sidereal Time
18:30:46
Azimuth
48.676° ENE
Elevation
-66.366°
Doppler factor
1
Orbital elements
Apogee altitude
18,616.465 km
Perigee altitude
287.571 km
Semi-major axis
15,830.155 km
Eccentricity
0.57892
Inclination
19.0342°
RAAN
111.4469°
Arg. of periapsis
56.0303°
True anomaly
Unknown
Mean anomaly
346.1351°
Eccentric anomaly
Unknown
Mean motion
1.08972 °/min
Orbital period
330.36 mins
BSTAR
0.00095636
Loading maneuver chart data...
Loading SW <> Apogee altitude chart data...
Loading historical data...
Loading historical data...
Loading historical data...
Loading historical data...
Loading historical data...
Loading historical data...
Loading historical data...
Other satellites on launch #18 in the year 2015 (2015-03-28 UTC)

PSLV R/B Visibility forecast

Observer location: undefined°, undefined°

Span
Click to sort rows by Start time (UTC) header in descending order
Start Az.
Max El. time (UTC)
Max El. Az.
Max El.
End time (UTC)
End Az.
195 mins2025-07-11 07:08:35.308Z234.156° WSW2025-07-11 07:37:35.308Z186.332° SSW25.302°2025-07-11 10:23:35.308Z150.677° SSE
72 mins2025-07-12 05:01:35.308Z221.754° SW2025-07-12 05:13:35.308Z174.457° S25.042°2025-07-12 06:13:35.308Z135.262° SSE
|